TimeAKDT,TemperatureF,Dew PointF,Humidity,Sea Level PressureIn,VisibilityMPH,Wind Direction,Wind SpeedMPH,Gust SpeedMPH,PrecipitationIn,Events,Conditions,WindDirDegrees,DateUTC
12:53 AM,35.1,33.1,92,29.96,10.0,SW,3.5,-,N/A,,Partly Cloudy,220,2013-10-21 08:53:00
1:53 AM,34.0,30.9,89,29.97,10.0,West,5.8,-,N/A,,Partly Cloudy,280,2013-10-21 09:53:00
2:53 AM,33.1,30.9,92,29.98,10.0,WNW,3.5,-,N/A,,Partly Cloudy,300,2013-10-21 10:53:00
3:53 AM,32.0,30.0,92,29.98,10.0,West,4.6,-,N/A,,Partly Cloudy,270,2013-10-21 11:53:00
4:53 AM,30.9,28.9,92,29.98,10.0,West,4.6,-,N/A,,Clear,280,2013-10-21 12:53:00
5:53 AM,28.9,28.0,96,29.98,10.0,West,3.5,-,N/A,,Clear,270,2013-10-21 13:53:00
6:53 AM,30.0,28.9,96,29.98,10.0,West,4.6,-,N/A,,Partly Cloudy,270,2013-10-21 14:53:00
7:53 AM,30.0,28.0,92,29.98,10.0,Calm,Calm,-,N/A,,Scattered Clouds,0,2013-10-21 15:53:00
8:53 AM,36.0,33.1,89,29.98,10.0,Calm,Calm,-,N/A,,Scattered Clouds,0,2013-10-21 16:53:00
9:53 AM,39.0,35.1,86,29.98,10.0,Calm,Calm,-,N/A,,Scattered Clouds,0,2013-10-21 17:53:00
10:02 AM,39.2,35.6,87,29.97,10.0,Calm,Calm,-,N/A,,Mostly Cloudy,0,2013-10-21 18:02:00
10:05 AM,39.2,35.6,87,29.97,10.0,Calm,Calm,-,N/A,,Scattered Clouds,0,2013-10-21 18:05:00
10:53 AM,42.1,37.0,82,29.97,10.0,Calm,Calm,-,N/A,,Mostly Cloudy,0,2013-10-21 18:53:00
11:53 AM,44.1,39.0,82,29.96,10.0,SSE,3.5,-,0.00,,Mostly Cloudy,150,2013-10-21 19:53:00
12:53 PM,46.0,39.9,79,29.94,10.0,East,4.6,-,N/A,,Mostly Cloudy,90,2013-10-21 20:53:00
1:37 PM,44.6,39.2,81,29.93,5.0,SE,19.6,24.2,0.02,Rain,Light Rain,130,2013-10-21 21:37:00
1:53 PM,44.1,39.9,85,29.95,5.0,SSE,15.0,-,0.05,Rain,Rain,160,2013-10-21 21:53:00
2:53 PM,41.0,36.0,82,29.94,10.0,Calm,Calm,-,0.17,Rain,Light Rain,0,2013-10-21 22:53:00
3:06 PM,42.8,37.4,81,29.93,10.0,Calm,Calm,-,0.01,Rain,Light Rain,0,2013-10-21 23:06:00
3:53 PM,42.1,37.0,82,29.93,10.0,SSE,4.6,-,0.01,,Scattered Clouds,160,2013-10-21 23:53:00
4:53 PM,44.1,37.9,79,29.93,10.0,South,5.8,-,N/A,,Scattered Clouds,170,2013-10-22 00:53:00
5:53 PM,43.0,36.0,76,29.95,10.0,SSW,6.9,-,N/A,,Scattered Clouds,210,2013-10-22 01:53:00
6:53 PM,41.0,34.0,76,29.97,10.0,SW,3.5,-,N/A,,Scattered Clouds,220,2013-10-22 02:53:00
7:53 PM,37.0,33.1,86,30.00,10.0,South,8.1,-,N/A,,Scattered Clouds,190,2013-10-22 03:53:00
8:53 PM,39.0,32.0,76,30.02,10.0,Calm,Calm,-,N/A,,Partly Cloudy,0,2013-10-22 04:53:00
9:53 PM,35.1,32.0,89,30.06,10.0,WNW,4.6,-,N/A,,Clear,290,2013-10-22 05:53:00
10:53 PM,34.0,32.0,92,30.08,10.0,West,5.8,-,N/A,,Clear,270,2013-10-22 06:53:00
11:53 PM,33.1,30.9,92,30.10,10.0,WNW,4.6,-,N/A,,Clear,300,2013-10-22 07:53:00